Torna al catalogo

DEB SIMORGH

AttivoLEO
NORAD 65789·DEBRIS·🇮🇷 Iran
Questo nome del satellite non è ancora stato confermato da fonti ufficiali.

Lanciato Jan 28, 2024 da Semnan Space Center

Loading…

Prossimi Passaggi (prossime 24 ore)

TLE

ObsoletoSource: Space-Track

Epoca: Sep 2, 2026, 20:18 UTC

1 65789U 24018E   26245.84613841  .00002997  00000-0  28493-3 0  9990
2 65789  58.9612 285.4578 0366566 147.0158 215.4339 14.56764315120276

Traccia DEB SIMORGH in tempo reale con AllMySat

Download on the App Store